AFR37RL LIRN-LFPG

Flight info

Callsign AFR37RL
Flight time N/A
Altitude 38000
Route ISKIA M603 PNZ M729 ELB L50 BANKO DCT DJL
Aircraft A320/M-SDE2E3FGIJ1RWY/HB1

Departure

Time 2026-05-07 17:12
Airport Naples International Airport (LIRN)

Arrival

Time N/A
Airport Charles de Gaulle International Airport (LFPG)
Time Latitude Longitude Altitude Speed Heading
2026-05-07 17:01 40.87868 14.28406 289 ft 0 kts 188°
2026-05-07 17:04 40.87872 14.28407 309 ft 3 kts 188°
2026-05-07 17:04 40.87898 14.28411 297 ft 4 kts 184°
2026-05-07 17:04 40.87924 14.28409 294 ft 4 kts 154°
2026-05-07 17:05 40.87940 14.28388 293 ft 3 kts 100°
2026-05-07 17:05 40.87941 14.28384 292 ft 0 kts 98°
2026-05-07 17:06 40.87940 14.28390 293 ft 4 kts 98°
2026-05-07 17:07 40.87945 14.28464 291 ft 10 kts 53°
2026-05-07 17:07 40.87997 14.28526 285 ft 10 kts 48°
2026-05-07 17:07 40.88042 14.28599 283 ft 10 kts 52°
2026-05-07 17:07 40.88088 14.28679 281 ft 14 kts 53°
2026-05-07 17:08 40.88161 14.28805 278 ft 19 kts 52°
2026-05-07 17:08 40.88245 14.28951 275 ft 21 kts 53°
2026-05-07 17:08 40.88340 14.29118 271 ft 24 kts 53°
2026-05-07 17:08 40.88449 14.29305 266 ft 27 kts 52°
2026-05-07 17:09 40.88560 14.29497 261 ft 24 kts 52°
2026-05-07 17:09 40.88659 14.29670 255 ft 25 kts 52°
2026-05-07 17:09 40.88771 14.29862 249 ft 27 kts 53°
2026-05-07 17:09 40.88875 14.30043 243 ft 25 kts 52°
2026-05-07 17:10 40.88967 14.30201 238 ft 20 kts 53°
2026-05-07 17:10 40.89045 14.30336 232 ft 15 kts 52°
2026-05-07 17:10 40.89121 14.30444 227 ft 15 kts 25°
2026-05-07 17:10 40.89210 14.30402 226 ft 10 kts 317°
2026-05-07 17:11 40.89204 14.30349 228 ft 2 kts 239°
2026-05-07 17:11 40.89173 14.30280 231 ft 32 kts 238°
2026-05-07 17:11 40.88923 14.29753 249 ft 99 kts 238°
2026-05-07 17:11 40.88455 14.28767 283 ft 150 kts 238°
2026-05-07 17:12 40.87917 14.27645 926 ft 137 kts 236°
2026-05-07 17:12 40.87197 14.26764 1317 ft 148 kts 223°
2026-05-07 17:12 40.86668 14.26125 1463 ft 164 kts 225°
2026-05-07 17:12 40.85433 14.24643 1784 ft 201 kts 213°
2026-05-07 17:13 40.84086 14.24041 2271 ft 209 kts 183°
2026-05-07 17:13 40.82659 14.24280 2925 ft 208 kts 162°
2026-05-07 17:13 40.81260 14.24816 3538 ft 211 kts 163°
2026-05-07 17:13 40.79830 14.25332 4173 ft 213 kts 163°
2026-05-07 17:14 40.78401 14.25847 4891 ft 212 kts 162°
2026-05-07 17:14 40.77445 14.26204 5353 ft 211 kts 162°
2026-05-07 17:14 40.76052 14.26729 6130 ft 206 kts 162°
2026-05-07 17:14 40.74562 14.26904 6436 ft 228 kts 189°
2026-05-07 17:15 40.73099 14.25885 6653 ft 256 kts 226°
2026-05-07 17:15 40.72267 14.23710 6962 ft 280 kts 255°
2026-05-07 17:15 40.71903 14.21144 7581 ft 288 kts 261°
2026-05-07 17:15 40.71687 14.18533 8325 ft 292 kts 264°
2026-05-07 17:16 40.71510 14.15862 9102 ft 294 kts 264°
2026-05-07 17:16 40.71325 14.13167 9878 ft 296 kts 263°
2026-05-07 17:16 40.71113 14.10425 10251 ft 313 kts 263°
2026-05-07 17:16 40.70862 14.07490 10434 ft 334 kts 262°
2026-05-07 17:17 40.70577 14.04403 10964 ft 342 kts 261°
2026-05-07 17:17 40.70278 14.01280 11645 ft 345 kts 261°
2026-05-07 17:17 40.69968 13.98131 12343 ft 347 kts 261°
2026-05-07 17:17 40.69658 13.94972 13094 ft 348 kts 261°
2026-05-07 17:18 40.69357 13.91808 13832 ft 349 kts 263°
2026-05-07 17:18 40.69392 13.88598 14450 ft 353 kts 275°
2026-05-07 17:18 40.69943 13.85425 15053 ft 358 kts 285°
2026-05-07 17:18 40.70711 13.82293 15633 ft 361 kts 285°
2026-05-07 17:19 40.71479 13.79132 16226 ft 363 kts 285°
2026-05-07 17:19 40.72245 13.75958 16809 ft 365 kts 285°
2026-05-07 17:19 40.73013 13.72757 17395 ft 367 kts 285°
2026-05-07 17:19 40.73785 13.69538 17978 ft 369 kts 285°
2026-05-07 17:20 40.74560 13.66298 18508 ft 372 kts 285°
2026-05-07 17:20 40.75339 13.63041 19036 ft 373 kts 285°
2026-05-07 17:20 40.76118 13.59776 19573 ft 374 kts 285°
2026-05-07 17:20 40.76899 13.56499 20108 ft 375 kts 285°
2026-05-07 17:21 40.77683 13.53207 20640 ft 377 kts 285°
2026-05-07 17:21 40.78468 13.49904 21164 ft 378 kts 285°
2026-05-07 17:21 40.79243 13.46632 21713 ft 379 kts 285°
2026-05-07 17:21 40.80029 13.43308 22242 ft 380 kts 285°
2026-05-07 17:22 40.80819 13.39971 22735 ft 381 kts 285°
2026-05-07 17:22 40.81613 13.36626 23225 ft 383 kts 285°
2026-05-07 17:22 40.82407 13.33262 23667 ft 385 kts 285°
2026-05-07 17:22 40.83205 13.29882 24044 ft 386 kts 285°
2026-05-07 17:23 40.84001 13.26487 24413 ft 388 kts 285°
2026-05-07 17:23 40.84800 13.23077 24768 ft 390 kts 285°
2026-05-07 17:23 40.85601 13.19651 25119 ft 391 kts 284°
2026-05-07 17:23 40.86406 13.16207 25467 ft 393 kts 284°
2026-05-07 17:24 40.87212 13.12755 25815 ft 395 kts 284°
2026-05-07 17:24 40.88022 13.09277 26144 ft 396 kts 284°
2026-05-07 17:24 40.88834 13.05789 26471 ft 398 kts 284°
2026-05-07 17:24 40.89654 13.02285 26800 ft 400 kts 284°
2026-05-07 17:25 40.90537 12.98792 27115 ft 403 kts 289°
2026-05-07 17:25 40.91834 12.95478 27428 ft 410 kts 298°
2026-05-07 17:25 40.93586 12.92473 27730 ft 418 kts 308°
2026-05-07 17:25 40.95627 12.89713 28026 ft 420 kts 309°
2026-05-07 17:26 40.97681 12.86946 28307 ft 422 kts 309°
2026-05-07 17:26 40.99742 12.84162 28583 ft 424 kts 309°
2026-05-07 17:26 41.01805 12.81365 28858 ft 426 kts 309°
2026-05-07 17:26 41.03878 12.78544 29120 ft 428 kts 309°
2026-05-07 17:27 41.05927 12.75751 29387 ft 429 kts 309°
2026-05-07 17:27 41.08014 12.72910 29644 ft 431 kts 308°
2026-05-07 17:27 41.10112 12.70052 29872 ft 433 kts 308°
2026-05-07 17:27 41.12219 12.67182 30083 ft 435 kts 308°
2026-05-07 17:28 41.14332 12.64304 30294 ft 436 kts 308°
2026-05-07 17:28 41.16451 12.61413 30517 ft 437 kts 308°
2026-05-07 17:28 41.18566 12.58523 30796 ft 435 kts 308°
2026-05-07 17:28 41.20668 12.55647 31133 ft 433 kts 308°
2026-05-07 17:29 41.22758 12.52787 31465 ft 430 kts 308°
2026-05-07 17:29 41.24838 12.49945 31803 ft 428 kts 308°
2026-05-07 17:29 41.26906 12.47123 32143 ft 425 kts 307°
2026-05-07 17:29 41.28963 12.44314 32481 ft 422 kts 307°
2026-05-07 17:30 41.31001 12.41521 32814 ft 420 kts 307°
2026-05-07 17:30 41.33026 12.38733 33146 ft 418 kts 307°
2026-05-07 17:30 41.35040 12.35950 33411 ft 417 kts 307°
2026-05-07 17:30 41.37053 12.33169 33694 ft 416 kts 307°
2026-05-07 17:31 41.39061 12.30397 33976 ft 415 kts 307°
2026-05-07 17:31 41.41063 12.27639 34222 ft 414 kts 306°
2026-05-07 17:31 41.43060 12.24888 34470 ft 412 kts 306°
2026-05-07 17:31 41.45049 12.22147 34717 ft 411 kts 306°
2026-05-07 17:32 41.47030 12.19412 34956 ft 409 kts 306°
2026-05-07 17:32 41.48999 12.16687 35178 ft 407 kts 305°
2026-05-07 17:32 41.50963 12.13968 35403 ft 406 kts 305°
2026-05-07 17:32 41.52920 12.11258 35614 ft 405 kts 305°
2026-05-07 17:33 41.54869 12.08558 35822 ft 404 kts 304°
2026-05-07 17:33 41.56813 12.05865 36028 ft 403 kts 304°
2026-05-07 17:33 41.58757 12.03164 36186 ft 403 kts 304°
2026-05-07 17:33 41.60700 12.00462 36320 ft 403 kts 304°
2026-05-07 17:34 41.62642 11.97761 36455 ft 404 kts 304°
2026-05-07 17:34 41.64589 11.95052 36591 ft 404 kts 304°
2026-05-07 17:34 41.66532 11.92347 36729 ft 404 kts 304°
2026-05-07 17:34 41.68476 11.89634 36868 ft 403 kts 304°
2026-05-07 17:35 41.70413 11.86923 37008 ft 403 kts 304°
2026-05-07 17:35 41.72343 11.84211 37148 ft 402 kts 303°
2026-05-07 17:35 41.74242 11.81535 37286 ft 402 kts 303°
2026-05-07 17:35 41.76162 11.78824 37417 ft 401 kts 303°
2026-05-07 17:36 41.78077 11.76112 37551 ft 400 kts 303°
2026-05-07 17:36 41.79989 11.73403 37687 ft 400 kts 303°
2026-05-07 17:36 41.81899 11.70703 37874 ft 398 kts 304°
2026-05-07 17:36 41.83809 11.68011 37965 ft 399 kts 304°
2026-05-07 17:37 41.87656 11.62585 37962 ft 403 kts 304°
2026-05-07 17:37 41.91531 11.57132 37964 ft 404 kts 304°
2026-05-07 17:38 41.95411 11.51669 37967 ft 404 kts 304°
2026-05-07 17:38 41.99279 11.46188 37967 ft 404 kts 304°
2026-05-07 17:39 42.03138 11.40693 37966 ft 404 kts 304°
2026-05-07 17:39 42.07003 11.35197 37986 ft 405 kts 304°
2026-05-07 17:40 42.10874 11.29689 38003 ft 405 kts 304°
2026-05-07 17:40 42.14718 11.24196 37981 ft 406 kts 304°
2026-05-07 17:41 42.18591 11.18650 37971 ft 406 kts 304°
2026-05-07 17:41 42.22462 11.13087 37968 ft 407 kts 304°
2026-05-07 17:42 42.26340 11.07514 37967 ft 407 kts 304°
2026-05-07 17:42 42.30221 11.01937 37969 ft 407 kts 304°
2026-05-07 17:43 42.34097 10.96344 37976 ft 408 kts 304°
2026-05-07 17:43 42.37971 10.90746 37975 ft 408 kts 304°
2026-05-07 17:44 42.41848 10.85147 37981 ft 408 kts 304°
2026-05-07 17:44 42.45721 10.79538 37983 ft 408 kts 304°
2026-05-07 17:45 42.49595 10.73918 37981 ft 408 kts 304°
2026-05-07 17:45 42.53461 10.68293 38001 ft 408 kts 304°
2026-05-07 17:46 42.57327 10.62664 37992 ft 408 kts 304°
2026-05-07 17:46 42.61185 10.57019 38014 ft 408 kts 304°
2026-05-07 17:47 42.65044 10.51362 37997 ft 409 kts 304°
2026-05-07 17:47 42.68910 10.45698 37988 ft 409 kts 304°
2026-05-07 17:48 42.72793 10.40044 37986 ft 412 kts 308°
2026-05-07 17:48 42.77242 10.34990 38016 ft 418 kts 313°
2026-05-07 17:49 42.81760 10.30014 37999 ft 418 kts 313°
2026-05-07 17:49 42.86250 10.25060 37989 ft 418 kts 312°
2026-05-07 17:50 42.90766 10.20059 38004 ft 418 kts 312°
2026-05-07 17:50 42.95306 10.15010 38009 ft 418 kts 312°
2026-05-07 17:51 42.99816 10.09989 38017 ft 418 kts 312°
2026-05-07 17:51 43.04328 10.04964 38015 ft 418 kts 312°
2026-05-07 17:52 43.08833 9.99942 38008 ft 418 kts 312°
2026-05-07 17:52 43.13330 9.94913 38002 ft 417 kts 312°
2026-05-07 17:53 43.17790 9.89906 38003 ft 417 kts 312°
2026-05-07 17:53 43.22279 9.84868 38017 ft 417 kts 312°
2026-05-07 17:54 43.26778 9.79830 38006 ft 418 kts 312°
2026-05-07 17:54 43.31271 9.74763 37993 ft 418 kts 312°
2026-05-07 17:55 43.35766 9.69684 37990 ft 419 kts 312°
2026-05-07 17:55 43.40265 9.64605 37991 ft 419 kts 312°
2026-05-07 17:56 43.44762 9.59501 38010 ft 419 kts 312°
2026-05-07 17:56 43.49259 9.54388 38003 ft 420 kts 312°
2026-05-07 17:57 43.53035 9.50100 38003 ft 420 kts 312°
2026-05-07 17:57 43.58272 9.44143 38021 ft 420 kts 312°
2026-05-07 17:58 43.62777 9.38995 38002 ft 421 kts 312°
2026-05-07 17:58 43.67282 9.33827 38005 ft 421 kts 312°
2026-05-07 17:59 43.71790 9.28655 38000 ft 421 kts 312°
2026-05-07 17:59 43.76298 9.23471 37997 ft 421 kts 312°
2026-05-07 18:00 43.80805 9.18279 37999 ft 421 kts 312°
2026-05-07 18:00 43.85312 9.13088 38000 ft 421 kts 312°
2026-05-07 18:01 43.89817 9.07884 38027 ft 422 kts 313°
2026-05-07 18:01 43.94320 9.02670 38014 ft 422 kts 312°
2026-05-07 18:02 44.00317 8.95709 38007 ft 422 kts 312°
2026-05-07 18:03 44.04823 8.90476 38002 ft 422 kts 312°
2026-05-07 18:03 44.09324 8.85230 38016 ft 422 kts 313°
2026-05-07 18:04 44.13823 8.79965 38014 ft 423 kts 313°
2026-05-07 18:04 44.18317 8.74687 38007 ft 422 kts 312°
2026-05-07 18:05 44.22806 8.69402 38013 ft 423 kts 313°
2026-05-07 18:05 44.27305 8.64114 38002 ft 423 kts 313°
2026-05-07 18:06 44.31775 8.58850 38020 ft 423 kts 313°
2026-05-07 18:06 44.36274 8.53542 38011 ft 423 kts 313°
2026-05-07 18:07 44.40775 8.48225 38001 ft 424 kts 313°
2026-05-07 18:07 44.45267 8.42895 37995 ft 424 kts 313°
2026-05-07 18:08 44.49752 8.37552 37991 ft 423 kts 313°
2026-05-07 18:08 44.54242 8.32208 37995 ft 424 kts 313°
2026-05-07 18:09 44.58726 8.26854 37995 ft 424 kts 313°
2026-05-07 18:09 44.63212 8.21483 37992 ft 424 kts 313°
2026-05-07 18:10 44.67698 8.16105 37983 ft 424 kts 313°
2026-05-07 18:10 44.72185 8.10715 37990 ft 424 kts 313°
2026-05-07 18:11 44.76683 8.05329 37999 ft 425 kts 313°
2026-05-07 18:11 44.81178 7.99925 37985 ft 425 kts 313°
2026-05-07 18:12 44.85673 7.94505 37996 ft 425 kts 313°
2026-05-07 18:12 44.90162 7.89065 37987 ft 426 kts 313°
2026-05-07 18:13 44.94902 7.84078 37985 ft 432 kts 322°
2026-05-07 18:13 45.00004 7.79566 37977 ft 433 kts 322°
2026-05-07 18:14 45.05106 7.75030 37976 ft 433 kts 321°
2026-05-07 18:14 45.10207 7.70479 37970 ft 433 kts 321°
2026-05-07 18:15 45.15301 7.65915 37994 ft 434 kts 322°
2026-05-07 18:15 45.20400 7.61342 37987 ft 434 kts 322°
2026-05-07 18:16 45.25507 7.56771 37983 ft 434 kts 322°
2026-05-07 18:16 45.30618 7.52197 37982 ft 434 kts 322°
2026-05-07 18:17 45.35729 7.47600 38007 ft 435 kts 322°
2026-05-07 18:17 45.40842 7.42995 37998 ft 435 kts 322°
2026-05-07 18:18 45.45942 7.38388 37997 ft 434 kts 322°
2026-05-07 18:18 45.51041 7.33776 38013 ft 434 kts 322°
2026-05-07 18:19 45.56155 7.29133 38039 ft 436 kts 322°
2026-05-07 18:19 45.61267 7.24481 38032 ft 436 kts 322°
2026-05-07 18:20 45.66376 7.19824 38023 ft 436 kts 322°
2026-05-07 18:20 45.71440 7.15181 37980 ft 435 kts 322°
2026-05-07 18:21 45.76531 7.10498 38012 ft 435 kts 322°
2026-05-07 18:21 45.81597 7.05784 38004 ft 432 kts 318°
2026-05-07 18:22 45.86081 7.00154 37998 ft 428 kts 313°
2026-05-07 18:22 45.90484 6.94411 37997 ft 428 kts 313°
2026-05-07 18:23 45.94907 6.88645 38014 ft 430 kts 313°
2026-05-07 18:23 45.99332 6.82856 38033 ft 430 kts 313°
2026-05-07 18:24 46.03747 6.77067 38026 ft 430 kts 313°
2026-05-07 18:24 46.08157 6.71275 38029 ft 430 kts 313°
2026-05-07 18:25 46.12575 6.65453 38020 ft 431 kts 313°
2026-05-07 18:25 46.16992 6.59620 38025 ft 430 kts 313°
2026-05-07 18:26 46.21404 6.53778 38029 ft 430 kts 313°
2026-05-07 18:26 46.25804 6.47922 38024 ft 430 kts 313°
2026-05-07 18:27 46.30205 6.42063 38022 ft 430 kts 313°
2026-05-07 18:27 46.34584 6.36238 38030 ft 430 kts 313°
2026-05-07 18:28 46.38987 6.30371 38027 ft 430 kts 313°
2026-05-07 18:28 46.43387 6.24494 38052 ft 430 kts 313°
2026-05-07 18:29 46.47782 6.18603 38041 ft 430 kts 313°
2026-05-07 18:29 46.52168 6.12691 38052 ft 430 kts 313°
2026-05-07 18:30 46.56551 6.06779 38048 ft 430 kts 313°
2026-05-07 18:30 46.60934 6.00854 38061 ft 430 kts 313°
2026-05-07 18:31 46.65316 5.94923 38053 ft 430 kts 313°
2026-05-07 18:31 46.69695 5.88978 38055 ft 430 kts 313°
2026-05-07 18:32 46.74065 5.83023 38053 ft 430 kts 313°
2026-05-07 18:32 46.78433 5.77052 38050 ft 430 kts 313°
2026-05-07 18:33 46.82804 5.71084 38066 ft 430 kts 313°
2026-05-07 18:33 46.87171 5.65103 38057 ft 430 kts 313°
2026-05-07 18:34 46.91536 5.59107 38048 ft 431 kts 313°
2026-05-07 18:34 46.95897 5.53095 38048 ft 431 kts 313°
2026-05-07 18:35 47.00260 5.47074 38048 ft 431 kts 313°
2026-05-07 18:35 47.04590 5.41092 38048 ft 431 kts 313°
2026-05-07 18:36 47.08950 5.35046 38059 ft 431 kts 313°
2026-05-07 18:36 47.13304 5.28991 38057 ft 431 kts 313°
2026-05-07 18:37 47.17659 5.22922 38050 ft 432 kts 313°
2026-05-07 18:37 47.22015 5.16840 38052 ft 432 kts 313°
2026-05-07 18:38 47.26371 5.10743 38049 ft 432 kts 313°
2026-05-07 18:38 47.31086 5.05188 38056 ft 435 kts 319°
2026-05-07 18:39 47.35891 4.99759 38048 ft 435 kts 319°
2026-05-07 18:39 47.40696 4.94313 38053 ft 436 kts 319°
2026-05-07 18:40 47.45496 4.88844 38057 ft 436 kts 318°
2026-05-07 18:40 47.50304 4.83370 38070 ft 436 kts 319°
2026-05-07 18:41 47.55077 4.77915 38066 ft 437 kts 319°
2026-05-07 18:41 47.59881 4.72400 38063 ft 437 kts 319°
2026-05-07 18:42 47.64683 4.66877 38057 ft 437 kts 319°
2026-05-07 18:42 47.69492 4.61350 38068 ft 437 kts 318°
2026-05-07 18:43 47.74298 4.55810 38074 ft 437 kts 319°
2026-05-07 18:43 47.79097 4.50251 38066 ft 437 kts 318°
2026-05-07 18:44 47.83897 4.44678 38062 ft 438 kts 318°
2026-05-07 18:44 47.88696 4.39097 38061 ft 438 kts 318°
2026-05-07 18:45 47.93492 4.33504 38079 ft 438 kts 318°
2026-05-07 18:45 47.98259 4.27939 38074 ft 438 kts 319°
2026-05-07 18:46 48.03055 4.22334 38076 ft 438 kts 318°
2026-05-07 18:46 48.07855 4.16701 38074 ft 438 kts 318°
2026-05-07 18:47 48.12649 4.11058 38074 ft 438 kts 318°
2026-05-07 18:47 48.17439 4.05402 38084 ft 438 kts 318°
2026-05-07 18:48 48.22229 3.99739 38078 ft 438 kts 318°
2026-05-07 18:48 48.27270 3.94571 38084 ft 442 kts 328°
2026-05-07 18:49 48.32707 3.90236 38075 ft 443 kts 328°
2026-05-07 18:49 48.38152 3.85902 38092 ft 443 kts 328°
2026-05-07 18:50 48.43594 3.81531 38086 ft 443 kts 328°
2026-05-07 18:50 48.49029 3.77145 38070 ft 443 kts 328°
2026-05-07 18:51 48.54124 3.72198 38061 ft 434 kts 309°
2026-05-07 18:51 48.57553 3.64757 38055 ft 429 kts 300°
2026-05-07 18:52 48.60763 3.57230 38066 ft 430 kts 300°
2026-05-07 18:52 48.64006 3.49628 38063 ft 431 kts 300°
2026-05-07 18:53 48.67267 3.42022 38063 ft 431 kts 300°
2026-05-07 18:53 48.70520 3.34392 38066 ft 432 kts 300°
2026-05-07 18:54 48.73765 3.26734 38073 ft 432 kts 300°
2026-05-07 18:54 48.76461 3.20365 38073 ft 432 kts 300°
2026-05-07 18:55 48.79703 3.12695 38080 ft 432 kts 300°
2026-05-07 18:55 48.82941 3.05014 38086 ft 432 kts 300°
2026-05-07 18:56 48.86605 2.97763 38078 ft 435 kts 309°
2026-05-07 18:56 48.90689 2.90966 38077 ft 436 kts 309°
2026-05-07 18:56 48.92515 2.87341 38073 ft 429 kts 294°